WZZ4JN LYBE-LFOB

Flight info

Callsign WZZ4JN
Flight time N/A
Altitude 36000
Route TISAK DCT TONDO DCT SASAL DCT RENKA DCT INBED DCT BOMBI DCT RUDUS DCT OBIGA DCT NOSPA DCT BITBU DCT DIK UN857 TOLVU/N0447F370 DCT RAPOR DCT VEDUS
Aircraft A320/M-SDE3FGHIRWY/LB1

Departure

Time N/A
Airport Belgrade Nikola Tesla Airport (LYBE)

Arrival

Time 2026-04-29 11:25
Airport Beauvais-Tillé airport (LFOB)
Time Latitude Longitude Altitude Speed Heading
2026-04-29 09:06 45.07358 19.93873 15629 ft 322 kts 26°
2026-04-29 09:06 45.09274 19.95536 16266 ft 325 kts 26°
2026-04-29 09:07 45.11212 19.97217 16916 ft 328 kts 25°
2026-04-29 09:07 45.13171 19.98886 17555 ft 330 kts 24°
2026-04-29 09:07 45.15160 20.00546 18186 ft 333 kts 23°
2026-04-29 09:07 45.17170 20.02198 18777 ft 336 kts 22°
2026-04-29 09:08 45.19204 20.03858 19352 ft 338 kts 22°
2026-04-29 09:08 45.21250 20.05525 19914 ft 341 kts 22°
2026-04-29 09:08 45.23317 20.07208 20476 ft 344 kts 22°
2026-04-29 09:08 45.25394 20.08903 21018 ft 346 kts 22°
2026-04-29 09:09 45.27491 20.10618 21548 ft 349 kts 22°
2026-04-29 09:09 45.28885 20.11759 21893 ft 350 kts 22°
2026-04-29 09:09 45.31006 20.13499 22418 ft 353 kts 21°
2026-04-29 09:09 45.33141 20.15253 22944 ft 355 kts 21°
2026-04-29 09:10 45.35291 20.17024 23482 ft 358 kts 21°
2026-04-29 09:10 45.37482 20.18672 23965 ft 353 kts 12°
2026-04-29 09:10 45.39812 20.19516 24389 ft 340 kts 357°
2026-04-29 09:10 45.42869 20.19272 24904 ft 330 kts 339°
2026-04-29 09:11 45.44345 20.18605 24980 ft 331 kts 330°
2026-04-29 09:11 45.46342 20.16953 25105 ft 335 kts 317°
2026-04-29 09:11 45.48069 20.14681 25238 ft 344 kts 312°
2026-04-29 09:11 45.49810 20.12257 25361 ft 355 kts 312°
2026-04-29 09:12 45.51587 20.09799 25485 ft 365 kts 313°
2026-04-29 09:12 45.53438 20.07250 25618 ft 374 kts 313°
2026-04-29 09:12 45.55324 20.04660 25879 ft 379 kts 313°
2026-04-29 09:12 45.57230 20.02043 26230 ft 381 kts 313°
2026-04-29 09:13 45.59137 19.99414 26606 ft 382 kts 313°
2026-04-29 09:13 45.61053 19.96765 26987 ft 384 kts 313°
2026-04-29 09:13 45.62971 19.94109 27368 ft 385 kts 313°
2026-04-29 09:13 45.64898 19.91436 27749 ft 386 kts 313°
2026-04-29 09:14 45.66830 19.88752 28124 ft 388 kts 313°
2026-04-29 09:14 45.68765 19.86065 28488 ft 389 kts 313°
2026-04-29 09:14 45.70709 19.83365 28914 ft 388 kts 313°
2026-04-29 09:14 45.72638 19.80684 29452 ft 386 kts 313°
2026-04-29 09:15 45.74556 19.78013 29996 ft 383 kts 313°
2026-04-29 09:15 45.76461 19.75356 30497 ft 381 kts 312°
2026-04-29 09:15 45.78350 19.72716 30939 ft 379 kts 312°
2026-04-29 09:15 45.80231 19.70087 31368 ft 377 kts 312°
2026-04-29 09:16 45.82107 19.67460 31827 ft 376 kts 312°
2026-04-29 09:16 45.83969 19.64846 32253 ft 374 kts 312°
2026-04-29 09:16 45.85828 19.62235 32702 ft 373 kts 312°
2026-04-29 09:16 45.87675 19.59638 33119 ft 372 kts 312°
2026-04-29 09:17 45.89525 19.57036 33221 ft 371 kts 312°
2026-04-29 09:17 45.93210 19.51855 33230 ft 370 kts 312°
2026-04-29 09:18 45.96886 19.46675 33229 ft 370 kts 312°
2026-04-29 09:18 46.00556 19.41490 33234 ft 370 kts 312°
2026-04-29 09:19 46.04202 19.36273 33236 ft 368 kts 308°
2026-04-29 09:19 46.07126 19.30262 33234 ft 366 kts 301°
2026-04-29 09:20 46.09899 19.24107 33238 ft 366 kts 301°
2026-04-29 09:20 46.12679 19.17951 33234 ft 366 kts 301°
2026-04-29 09:21 46.15450 19.11781 33239 ft 367 kts 301°
2026-04-29 09:21 46.18194 19.05633 33244 ft 367 kts 301°
2026-04-29 09:22 46.20961 18.99446 33243 ft 367 kts 301°
2026-04-29 09:22 46.23726 18.93253 33247 ft 367 kts 301°
2026-04-29 09:23 46.26486 18.87055 33249 ft 367 kts 301°
2026-04-29 09:23 46.29243 18.80844 33250 ft 367 kts 301°
2026-04-29 09:24 46.31992 18.74636 33248 ft 366 kts 301°
2026-04-29 09:24 46.34732 18.68424 33249 ft 366 kts 301°
2026-04-29 09:25 46.37469 18.62213 33250 ft 366 kts 301°
2026-04-29 09:25 46.40207 18.55999 33249 ft 366 kts 301°
2026-04-29 09:26 46.42942 18.49778 33250 ft 366 kts 301°
2026-04-29 09:26 46.45672 18.43542 33251 ft 366 kts 301°
2026-04-29 09:27 46.48400 18.37302 33249 ft 367 kts 301°
2026-04-29 09:27 46.51133 18.31042 33252 ft 367 kts 301°
2026-04-29 09:28 46.53853 18.24767 33252 ft 367 kts 301°
2026-04-29 09:28 46.56576 18.18484 33252 ft 368 kts 301°
2026-04-29 09:29 46.59286 18.12232 33254 ft 368 kts 301°
2026-04-29 09:29 46.63369 18.02787 33253 ft 368 kts 301°
2026-04-29 09:30 46.66089 17.96471 33258 ft 368 kts 301°
2026-04-29 09:30 46.68806 17.90140 33251 ft 369 kts 301°
2026-04-29 09:31 46.71520 17.83802 33256 ft 369 kts 301°
2026-04-29 09:31 46.74235 17.77465 33251 ft 369 kts 301°
2026-04-29 09:32 46.76948 17.71114 33256 ft 369 kts 301°
2026-04-29 09:32 46.79656 17.64745 33257 ft 370 kts 301°
2026-04-29 09:33 46.82364 17.58363 33261 ft 370 kts 301°
2026-04-29 09:33 46.85080 17.51972 33263 ft 371 kts 301°
2026-04-29 09:34 46.87790 17.45557 33261 ft 371 kts 301°
2026-04-29 09:34 46.90501 17.39128 33262 ft 372 kts 301°
2026-04-29 09:35 46.93208 17.32685 33261 ft 372 kts 300°
2026-04-29 09:35 46.95900 17.26280 33263 ft 372 kts 300°
2026-04-29 09:36 46.98611 17.19820 33264 ft 372 kts 300°
2026-04-29 09:36 47.01316 17.13345 33262 ft 373 kts 300°
2026-04-29 09:37 47.04017 17.06860 33261 ft 373 kts 300°
2026-04-29 09:37 47.06722 17.00370 33263 ft 373 kts 300°
2026-04-29 09:38 47.09421 16.93865 33260 ft 373 kts 300°
2026-04-29 09:38 47.12118 16.87346 33261 ft 374 kts 300°
2026-04-29 09:39 47.14818 16.80805 33262 ft 374 kts 300°
2026-04-29 09:39 47.17512 16.74255 33259 ft 375 kts 300°
2026-04-29 09:40 47.20214 16.67698 33261 ft 375 kts 300°
2026-04-29 09:40 47.22909 16.61126 33261 ft 375 kts 300°
2026-04-29 09:41 47.25604 16.54538 33258 ft 376 kts 300°
2026-04-29 09:41 47.28294 16.47928 33256 ft 377 kts 300°
2026-04-29 09:42 47.31122 16.41426 33260 ft 377 kts 303°
2026-04-29 09:42 47.34125 16.35072 33258 ft 378 kts 303°
2026-04-29 09:43 47.37125 16.28692 33254 ft 378 kts 303°
2026-04-29 09:43 47.40078 16.22271 33254 ft 379 kts 302°
2026-04-29 09:44 47.43020 16.15812 33253 ft 380 kts 302°
2026-04-29 09:44 47.45975 16.09329 33251 ft 380 kts 302°
2026-04-29 09:45 47.48929 16.02838 33255 ft 381 kts 302°
2026-04-29 09:45 47.51882 15.96330 33246 ft 381 kts 302°
2026-04-29 09:46 47.54833 15.89809 33248 ft 382 kts 302°
2026-04-29 09:46 47.57789 15.83283 33243 ft 382 kts 302°
2026-04-29 09:47 47.60743 15.76739 33241 ft 382 kts 302°
2026-04-29 09:47 47.63683 15.70187 33232 ft 382 kts 302°
2026-04-29 09:48 47.66629 15.63628 33238 ft 382 kts 303°
2026-04-29 09:48 47.69556 15.57102 33236 ft 382 kts 302°
2026-04-29 09:49 47.72495 15.50524 33242 ft 382 kts 302°
2026-04-29 09:49 47.75430 15.43932 33238 ft 383 kts 302°
2026-04-29 09:50 47.78357 15.37332 33236 ft 383 kts 302°
2026-04-29 09:50 47.81287 15.30714 33241 ft 383 kts 302°
2026-04-29 09:51 47.84221 15.24085 33245 ft 383 kts 302°
2026-04-29 09:51 47.87153 15.17445 33242 ft 384 kts 302°
2026-04-29 09:52 47.90090 15.10794 33248 ft 385 kts 302°
2026-04-29 09:52 47.93018 15.04122 33252 ft 385 kts 302°
2026-04-29 09:53 47.95940 14.97431 33252 ft 385 kts 302°
2026-04-29 09:53 47.98866 14.90719 33251 ft 386 kts 302°
2026-04-29 09:54 48.01293 14.85148 33253 ft 385 kts 302°
2026-04-29 09:54 48.04219 14.78426 33258 ft 385 kts 302°
2026-04-29 09:55 48.07142 14.71699 33255 ft 386 kts 302°
2026-04-29 09:55 48.10064 14.64950 33258 ft 387 kts 302°
2026-04-29 09:56 48.12984 14.58176 33256 ft 388 kts 302°
2026-04-29 09:56 48.15908 14.51382 33252 ft 388 kts 301°
2026-04-29 09:57 48.18833 14.44568 33250 ft 389 kts 301°
2026-04-29 09:57 48.21766 14.37725 33248 ft 391 kts 301°
2026-04-29 09:58 48.24708 14.30854 33247 ft 392 kts 301°
2026-04-29 09:58 48.27657 14.23947 33246 ft 393 kts 301°
2026-04-29 09:59 48.30603 14.17018 33244 ft 394 kts 301°
2026-04-29 09:59 48.33550 14.10061 33247 ft 395 kts 301°
2026-04-29 10:00 48.36502 14.03085 33247 ft 395 kts 301°
2026-04-29 10:00 48.39448 13.96095 33253 ft 396 kts 301°
2026-04-29 10:01 48.42382 13.89123 33257 ft 397 kts 301°
2026-04-29 10:01 48.45337 13.82082 33252 ft 398 kts 301°
2026-04-29 10:02 48.48295 13.75015 33254 ft 399 kts 301°
2026-04-29 10:02 48.51254 13.67917 33248 ft 400 kts 301°
2026-04-29 10:03 48.54216 13.60800 33249 ft 401 kts 301°
2026-04-29 10:03 48.57175 13.53659 33246 ft 401 kts 301°
2026-04-29 10:04 48.59879 13.46289 33243 ft 402 kts 296°
2026-04-29 10:04 48.62365 13.38732 33243 ft 402 kts 296°
2026-04-29 10:05 48.64850 13.31145 33245 ft 403 kts 296°
2026-04-29 10:05 48.67328 13.23545 33241 ft 403 kts 296°
2026-04-29 10:06 48.69805 13.15929 33245 ft 403 kts 296°
2026-04-29 10:06 48.72280 13.08301 33243 ft 404 kts 295°
2026-04-29 10:07 48.74754 13.00653 33244 ft 405 kts 295°
2026-04-29 10:07 48.77230 12.92978 33236 ft 405 kts 295°
2026-04-29 10:08 48.79698 12.85287 33243 ft 406 kts 295°
2026-04-29 10:08 48.82166 12.77581 33245 ft 406 kts 295°
2026-04-29 10:09 48.84639 12.69860 33240 ft 407 kts 295°
2026-04-29 10:09 48.87102 12.62118 33237 ft 407 kts 295°
2026-04-29 10:10 48.89559 12.54358 33237 ft 408 kts 295°
2026-04-29 10:10 48.92022 12.46594 33243 ft 408 kts 295°
2026-04-29 10:11 48.94466 12.38859 33243 ft 408 kts 295°
2026-04-29 10:11 48.96916 12.31068 33247 ft 408 kts 295°
2026-04-29 10:12 48.99356 12.23274 33249 ft 408 kts 295°
2026-04-29 10:12 49.01800 12.15462 33257 ft 409 kts 295°
2026-04-29 10:13 49.04248 12.07640 33261 ft 409 kts 295°
2026-04-29 10:13 49.06685 11.99798 33267 ft 409 kts 295°
2026-04-29 10:14 49.09112 11.91936 33272 ft 410 kts 295°
2026-04-29 10:14 49.11551 11.84060 33275 ft 410 kts 295°
2026-04-29 10:15 49.13981 11.76174 33274 ft 411 kts 295°
2026-04-29 10:15 49.16401 11.68270 33272 ft 411 kts 294°
2026-04-29 10:16 49.18405 11.61698 33270 ft 411 kts 294°
2026-04-29 10:16 49.21231 11.52428 33265 ft 411 kts 295°
2026-04-29 10:17 49.23646 11.44492 33258 ft 412 kts 294°
2026-04-29 10:17 49.26053 11.36545 33254 ft 412 kts 294°
2026-04-29 10:18 49.28457 11.28583 33261 ft 412 kts 294°
2026-04-29 10:18 49.30859 11.20603 33262 ft 412 kts 294°
2026-04-29 10:19 49.33236 11.12662 33270 ft 413 kts 294°
2026-04-29 10:19 49.35627 11.04671 33271 ft 413 kts 294°
2026-04-29 10:20 49.38014 10.96652 33275 ft 413 kts 294°
2026-04-29 10:20 49.40455 10.88647 33273 ft 414 kts 296°
2026-04-29 10:21 49.43057 10.80757 33274 ft 414 kts 296°
2026-04-29 10:21 49.45677 10.72852 33713 ft 415 kts 296°
2026-04-29 10:22 49.46968 10.68896 34168 ft 414 kts 296°
2026-04-29 10:22 49.48249 10.64930 34555 ft 413 kts 296°
2026-04-29 10:22 49.49519 10.60970 34899 ft 413 kts 296°
2026-04-29 10:22 49.50792 10.56997 35229 ft 414 kts 296°
2026-04-29 10:23 49.52079 10.52975 35539 ft 414 kts 296°
2026-04-29 10:23 49.53354 10.48992 35850 ft 415 kts 296°
2026-04-29 10:23 49.54627 10.45014 36148 ft 415 kts 296°
2026-04-29 10:23 49.55908 10.41012 36255 ft 418 kts 296°
2026-04-29 10:24 49.58474 10.32982 36276 ft 422 kts 296°
2026-04-29 10:24 49.61058 10.24852 36273 ft 423 kts 296°
2026-04-29 10:25 49.63633 10.16695 36272 ft 423 kts 296°
2026-04-29 10:25 49.66212 10.08511 36272 ft 424 kts 296°
2026-04-29 10:26 49.68784 10.00326 36270 ft 424 kts 296°
2026-04-29 10:26 49.71366 9.92108 36273 ft 425 kts 296°
2026-04-29 10:27 49.75233 9.79755 36273 ft 426 kts 295°
2026-04-29 10:28 49.77804 9.71498 36276 ft 426 kts 295°
2026-04-29 10:28 49.80372 9.63220 36277 ft 426 kts 295°
2026-04-29 10:29 49.82930 9.54939 36273 ft 427 kts 295°
2026-04-29 10:29 49.85480 9.46638 36275 ft 427 kts 295°
2026-04-29 10:30 49.88030 9.38326 36274 ft 427 kts 295°
2026-04-29 10:30 49.90573 9.29994 36278 ft 428 kts 295°
2026-04-29 10:31 49.93121 9.21648 36278 ft 428 kts 295°
2026-04-29 10:31 49.95666 9.13285 36279 ft 428 kts 295°
2026-04-29 10:32 49.98198 9.04907 36279 ft 429 kts 295°
2026-04-29 10:32 50.00722 8.96512 36278 ft 429 kts 295°
2026-04-29 10:33 50.03243 8.88097 36278 ft 430 kts 295°
2026-04-29 10:33 50.05277 8.79385 36276 ft 430 kts 281°
2026-04-29 10:34 50.05577 8.70100 36274 ft 431 kts 270°
2026-04-29 10:34 50.05461 8.60755 36276 ft 432 kts 270°
2026-04-29 10:35 50.05359 8.51406 36276 ft 432 kts 270°
2026-04-29 10:35 50.05248 8.42118 36277 ft 432 kts 270°
2026-04-29 10:36 50.05143 8.34291 36279 ft 432 kts 269°
2026-04-29 10:36 50.05016 8.24940 36284 ft 432 kts 269°
2026-04-29 10:37 50.04879 8.15589 36284 ft 432 kts 269°
2026-04-29 10:37 50.04729 8.06239 36289 ft 432 kts 269°
2026-04-29 10:38 50.04596 7.96885 36285 ft 432 kts 269°
2026-04-29 10:38 50.04461 7.87559 36284 ft 432 kts 269°
2026-04-29 10:39 50.04311 7.78228 36280 ft 431 kts 269°
2026-04-29 10:39 50.04156 7.68903 36282 ft 431 kts 269°
2026-04-29 10:40 50.03995 7.59579 36280 ft 431 kts 269°
2026-04-29 10:40 50.03824 7.50252 36286 ft 431 kts 269°
2026-04-29 10:41 50.03650 7.40924 36287 ft 431 kts 269°
2026-04-29 10:41 50.03463 7.31586 36290 ft 432 kts 268°
2026-04-29 10:42 50.03266 7.22259 36287 ft 432 kts 268°
2026-04-29 10:42 50.03061 7.12905 36290 ft 432 kts 268°
2026-04-29 10:43 50.02856 7.03576 36286 ft 432 kts 268°
2026-04-29 10:43 50.02640 6.94230 36282 ft 432 kts 268°
2026-04-29 10:44 50.02411 6.84903 36261 ft 432 kts 268°
2026-04-29 10:44 50.02167 6.75578 36264 ft 431 kts 266°
2026-04-29 10:45 50.00901 6.66502 36259 ft 432 kts 249°
2026-04-29 10:45 49.98698 6.57821 36258 ft 432 kts 249°
2026-04-29 10:46 49.96425 6.49180 36252 ft 432 kts 248°
2026-04-29 10:46 49.94002 6.40654 36250 ft 432 kts 246°
2026-04-29 10:47 49.91547 6.32126 36245 ft 432 kts 247°
2026-04-29 10:47 49.89126 6.23601 36239 ft 432 kts 247°
2026-04-29 10:48 49.86706 6.15072 36237 ft 432 kts 245°
2026-04-29 10:48 49.83498 6.07189 36235 ft 433 kts 236°
2026-04-29 10:49 49.79999 5.99600 36231 ft 433 kts 236°
2026-04-29 10:49 49.76493 5.92025 36232 ft 433 kts 235°
2026-04-29 10:50 49.73478 5.84030 36224 ft 431 kts 249°
2026-04-29 10:50 49.71469 5.75319 36220 ft 430 kts 251°
2026-04-29 10:51 49.69451 5.66623 36217 ft 430 kts 250°
2026-04-29 10:51 49.67422 5.57958 36222 ft 429 kts 250°
2026-04-29 10:52 49.65392 5.49305 36220 ft 428 kts 250°
2026-04-29 10:52 49.63360 5.40689 36214 ft 427 kts 250°
2026-04-29 10:53 49.61369 5.32065 36205 ft 427 kts 251°
2026-04-29 10:53 49.59618 5.23336 36202 ft 426 kts 258°
2026-04-29 10:54 49.59220 5.14293 36197 ft 427 kts 270°
2026-04-29 10:54 49.59307 5.05149 36196 ft 427 kts 269°
2026-04-29 10:55 49.59364 4.95994 35958 ft 428 kts 269°
2026-04-29 10:55 49.59392 4.91368 34906 ft 437 kts 269°
2026-04-29 10:55 49.59419 4.86654 33934 ft 441 kts 269°
2026-04-29 10:55 49.59447 4.81926 32920 ft 442 kts 269°
2026-04-29 10:56 49.59478 4.77183 31919 ft 442 kts 269°
2026-04-29 10:56 49.59509 4.72442 30917 ft 442 kts 269°
2026-04-29 10:56 49.59541 4.67717 29833 ft 441 kts 269°
2026-04-29 10:56 49.59565 4.62977 28588 ft 442 kts 269°
2026-04-29 10:57 49.59583 4.58244 27516 ft 441 kts 268°
2026-04-29 10:57 49.59597 4.53526 26535 ft 439 kts 268°
2026-04-29 10:57 49.59613 4.48842 25675 ft 436 kts 268°
2026-04-29 10:57 49.59627 4.44187 24856 ft 432 kts 268°
2026-04-29 10:58 49.59638 4.39582 24059 ft 429 kts 268°
2026-04-29 10:58 49.59648 4.35002 23203 ft 425 kts 268°
2026-04-29 10:58 49.59657 4.30467 22332 ft 422 kts 268°
2026-04-29 10:58 49.59666 4.25969 21746 ft 414 kts 268°
2026-04-29 10:59 49.59675 4.21640 21606 ft 396 kts 268°
2026-04-29 10:59 49.59684 4.17526 21477 ft 382 kts 267°
2026-04-29 10:59 49.59687 4.13503 21345 ft 369 kts 267°
2026-04-29 10:59 49.59689 4.09605 21218 ft 357 kts 267°
2026-04-29 11:00 49.59689 4.05849 21091 ft 345 kts 267°
2026-04-29 11:00 49.59691 4.02207 20903 ft 335 kts 266°
2026-04-29 11:00 49.59689 3.98644 20557 ft 331 kts 266°
2026-04-29 11:00 49.59682 3.95103 20157 ft 329 kts 266°
2026-04-29 11:01 49.59673 3.91581 19755 ft 328 kts 266°
2026-04-29 11:01 49.59662 3.88078 19351 ft 327 kts 266°
2026-04-29 11:01 49.59655 3.84584 18949 ft 326 kts 266°
2026-04-29 11:01 49.59648 3.81091 18559 ft 325 kts 266°
2026-04-29 11:02 49.59641 3.77616 18128 ft 324 kts 266°
2026-04-29 11:02 49.59633 3.74141 17702 ft 323 kts 266°
2026-04-29 11:02 49.59623 3.70691 17288 ft 322 kts 266°
2026-04-29 11:02 49.59612 3.67249 16847 ft 320 kts 266°
2026-04-29 11:03 49.59599 3.63790 16365 ft 321 kts 266°
2026-04-29 11:03 49.59582 3.60362 16030 ft 318 kts 266°
2026-04-29 11:03 49.59566 3.56968 15657 ft 316 kts 266°
2026-04-29 11:03 49.59333 3.53631 15296 ft 311 kts 254°
2026-04-29 11:04 49.58840 3.50405 14933 ft 309 kts 253°
2026-04-29 11:04 49.58342 3.47186 14557 ft 308 kts 253°
2026-04-29 11:04 49.57852 3.44029 14210 ft 307 kts 253°
2026-04-29 11:04 49.57354 3.40835 13835 ft 306 kts 253°
2026-04-29 11:05 49.56861 3.37647 13432 ft 305 kts 253°
2026-04-29 11:05 49.56371 3.34471 13038 ft 305 kts 253°
2026-04-29 11:05 49.55877 3.31284 12613 ft 305 kts 253°
2026-04-29 11:05 49.55382 3.28111 12223 ft 305 kts 253°
2026-04-29 11:06 49.54885 3.24941 11809 ft 305 kts 254°
2026-04-29 11:06 49.54383 3.21769 11416 ft 306 kts 253°
2026-04-29 11:06 49.53880 3.18577 11015 ft 306 kts 254°
2026-04-29 11:06 49.53377 3.15387 10635 ft 306 kts 253°
2026-04-29 11:07 49.52875 3.12203 10259 ft 307 kts 255°
2026-04-29 11:07 49.52370 3.09015 9878 ft 306 kts 255°
2026-04-29 11:07 49.51869 3.05827 9521 ft 306 kts 256°
2026-04-29 11:07 49.51596 3.02601 9200 ft 305 kts 269°
2026-04-29 11:08 49.51764 2.99345 8884 ft 304 kts 276°
2026-04-29 11:08 49.52003 2.96119 8599 ft 300 kts 276°
2026-04-29 11:08 49.52229 2.92943 8530 ft 299 kts 276°
2026-04-29 11:08 49.52452 2.89757 8459 ft 299 kts 276°
2026-04-29 11:09 49.52675 2.86581 8395 ft 299 kts 276°
2026-04-29 11:09 49.52898 2.83395 8317 ft 299 kts 276°
2026-04-29 11:09 49.53119 2.80220 8200 ft 298 kts 276°
2026-04-29 11:09 49.53338 2.77060 8146 ft 297 kts 276°
2026-04-29 11:10 49.53559 2.73881 8151 ft 299 kts 276°
2026-04-29 11:10 49.53779 2.70709 8148 ft 298 kts 276°
2026-04-29 11:10 49.53997 2.67529 8149 ft 299 kts 276°
2026-04-29 11:10 49.54216 2.64355 8151 ft 299 kts 276°
2026-04-29 11:11 49.54436 2.61177 8149 ft 299 kts 276°
2026-04-29 11:11 49.54655 2.57990 8157 ft 299 kts 276°
2026-04-29 11:11 49.54869 2.54808 8159 ft 299 kts 276°
2026-04-29 11:11 49.55081 2.51634 8159 ft 298 kts 276°
2026-04-29 11:12 49.55292 2.48458 8158 ft 298 kts 276°
2026-04-29 11:12 49.55519 2.45277 8156 ft 299 kts 277°
2026-04-29 11:12 49.55916 2.42141 8154 ft 298 kts 290°
2026-04-29 11:12 49.56821 2.39286 8158 ft 297 kts 301°
2026-04-29 11:13 49.57859 2.36540 8162 ft 297 kts 302°
2026-04-29 11:13 49.58917 2.33799 8163 ft 297 kts 302°
2026-04-29 11:13 49.59977 2.31073 8160 ft 297 kts 302°
2026-04-29 11:13 49.61038 2.28341 8161 ft 295 kts 302°
2026-04-29 11:14 49.62066 2.25681 8160 ft 281 kts 302°
2026-04-29 11:14 49.63038 2.23152 8157 ft 267 kts 302°
2026-04-29 11:14 49.63958 2.20744 8162 ft 253 kts 302°
2026-04-29 11:14 49.64828 2.18463 8163 ft 244 kts 302°
2026-04-29 11:15 49.65670 2.16198 8164 ft 243 kts 296°
2026-04-29 11:15 49.66065 2.13684 8167 ft 243 kts 271°
2026-04-29 11:15 49.66205 2.11118 8154 ft 244 kts 288°
2026-04-29 11:15 49.66914 2.08725 8162 ft 243 kts 304°
2026-04-29 11:16 49.68020 2.06793 8166 ft 240 kts 320°
2026-04-29 11:16 49.69264 2.05072 8163 ft 240 kts 321°
2026-04-29 11:16 49.70524 2.03384 8170 ft 240 kts 322°
2026-04-29 11:16 49.71790 2.01698 8164 ft 240 kts 322°
2026-04-29 11:17 49.73052 2.00016 8166 ft 240 kts 322°
2026-04-29 11:17 49.74311 1.98335 8027 ft 238 kts 322°
2026-04-29 11:17 49.75530 1.96622 7786 ft 237 kts 312°
2026-04-29 11:17 49.76227 1.94338 7485 ft 238 kts 277°
2026-04-29 11:18 49.76037 1.91848 7161 ft 234 kts 242°
2026-04-29 11:18 49.75494 1.90420 6941 ft 233 kts 231°
2026-04-29 11:18 49.74507 1.88427 6618 ft 234 kts 227°
2026-04-29 11:18 49.73483 1.86486 6353 ft 233 kts 227°
2026-04-29 11:19 49.72406 1.84623 6046 ft 230 kts 214°
2026-04-29 11:19 49.71026 1.83533 5747 ft 221 kts 187°
2026-04-29 11:19 49.69536 1.83500 5436 ft 211 kts 160°
2026-04-29 11:19 49.68227 1.84394 5113 ft 204 kts 144°
2026-04-29 11:20 49.66991 1.85486 4808 ft 205 kts 145°
2026-04-29 11:20 49.65755 1.86559 4484 ft 204 kts 145°
2026-04-29 11:20 49.64515 1.87631 4156 ft 204 kts 144°
2026-04-29 11:20 49.63282 1.88697 3859 ft 203 kts 144°
2026-04-29 11:21 49.62048 1.89759 3523 ft 203 kts 144°
2026-04-29 11:21 49.60817 1.90821 3233 ft 203 kts 144°
2026-04-29 11:21 49.59586 1.91885 2897 ft 203 kts 144°
2026-04-29 11:21 49.58357 1.92945 2597 ft 202 kts 143°
2026-04-29 11:22 49.57125 1.94013 2315 ft 204 kts 143°
2026-04-29 11:22 49.55881 1.95088 2020 ft 204 kts 144°
2026-04-29 11:22 49.54628 1.96172 2011 ft 208 kts 144°
2026-04-29 11:22 49.53358 1.97266 2006 ft 210 kts 144°
2026-04-29 11:23 49.52082 1.98362 2015 ft 211 kts 146°
2026-04-29 11:23 49.50813 1.99474 2003 ft 204 kts 141°
2026-04-29 11:23 49.49883 2.00993 1849 ft 190 kts 118°
2026-04-29 11:23 49.49188 2.02602 1636 ft 172 kts 115°
2026-04-29 11:24 49.48561 2.04059 1399 ft 155 kts 114°
2026-04-29 11:24 49.47987 2.05387 1173 ft 144 kts 116°
2026-04-29 11:24 49.47467 2.06632 970 ft 138 kts 116°
2026-04-29 11:24 49.46944 2.07842 758 ft 134 kts 117°
2026-04-29 11:25 49.46428 2.09030 612 ft 133 kts 118°
2026-04-29 11:25 49.45903 2.10217 434 ft 135 kts 118°
2026-04-29 11:25 49.45415 2.11370 361 ft 107 kts 122°
2026-04-29 11:25 49.45152 2.11959 360 ft 41 kts 124°
2026-04-29 11:26 49.45029 2.12498 354 ft 24 kts 94°
2026-04-29 11:26 49.44997 2.12762 349 ft 27 kts 123°
2026-04-29 11:26 49.44891 2.12998 352 ft 27 kts 124°
2026-04-29 11:27 49.44785 2.13241 357 ft 19 kts 125°
2026-04-29 11:27 49.44674 2.13260 360 ft 17 kts 221°
2026-04-29 11:27 49.44652 2.13113 363 ft 14 kts 282°
2026-04-29 11:27 49.44708 2.12959 360 ft 22 kts 302°
2026-04-29 11:28 49.44827 2.12694 354 ft 38 kts 303°
2026-04-29 11:28 49.44990 2.12317 362 ft 44 kts 304°
2026-04-29 11:28 49.45161 2.11921 363 ft 45 kts 304°
2026-04-29 11:28 49.45337 2.11524 359 ft 35 kts 304°
2026-04-29 11:29 49.45398 2.11383 359 ft 12 kts 304°
2026-04-29 11:29 49.45459 2.11307 357 ft 12 kts
2026-04-29 11:29 49.45524 2.11387 357 ft 14 kts 38°
2026-04-29 11:29 49.45620 2.11510 351 ft 20 kts 41°
2026-04-29 11:30 49.45722 2.11609 351 ft 14 kts 345°
2026-04-29 11:30 49.45788 2.11503 355 ft 12 kts 312°
2026-04-29 11:30 49.45794 2.11425 355 ft 8 kts 243°
2026-04-29 11:30 49.45807 2.11356 351 ft 8 kts 311°
2026-04-29 11:31 49.45830 2.11314 351 ft 0 kts 311°